GW7165 Weather Reports


time (UTC)temp
C
wind
direction
speed
KPH
gust
KPH
rain 1hr
cm
rain 24hr
cm
rain mn
cm
humidity
%
barometer
mb
20260906234530 36 256 6.4 12.9 0.00 0.00 0.00 42 1010.0
20260906234025 36 156 4.8 4.8 0.00 0.00 0.00 42 1009.7
20260906233524 36 170 4.8 4.8 0.00 0.00 0.00 43 1009.8
20260906233023 36 131 4.8 4.8 0.00 0.00 0.00 42 1009.9
20260906232518 36 98 4.8 9.7 0.00 0.00 0.00 41 1009.8
20260906232014 36 184 4.8 4.8 0.00 0.00 0.00 41 1009.7
20260906231508 36 117 4.8 9.7 0.00 0.00 0.00 41 1009.9
20260906231003 37 122 3.2 3.2 0.00 0.00 0.00 40 1009.9
20260906230501 37 83 3.2 4.8 0.00 0.00 0.00 40 1009.8
20260906230000 37 168 1.6 1.6 0.00 0.00 0.00 41 1009.7
20260906225455 37 177 3.2 3.2 0.00 0.00 0.00 41 1009.8
20260906224952 37 185 6.4 8.0 0.00 0.00 0.00 41 1010.0
20260906224448 37 144 3.2 3.2 0.00 0.00 0.00 39 1010.0
20260906223943 37 158 3.2 4.8 0.00 0.00 0.00 39 1009.9
20260906223439 37 127 4.8 4.8 0.00 0.00 0.00 39 1009.9
20260906222937 38 179 3.2 3.2 0.00 0.00 0.00 39 1009.7
20260906222432 37 140 4.8 4.8 0.00 0.00 0.00 39 1009.9
20260906221929 37 171 1.6 3.2 0.00 0.00 0.00 39 1010.0
20260906221428 37 155 6.4 9.7 0.00 0.00 0.00 40 1010.1
20260906220924 37 118 1.6 1.6 0.00 0.00 0.00 39 1010.1
20260906220420 37 122 4.8 4.8 0.00 0.00 0.00 39 1010.0
20260906215918 37 135 1.6 1.6 0.00 0.00 0.00 39 1009.9
20260906215413 37 94 3.2 3.2 0.00 0.00 0.00 39 1010.0
20260906214912 38 132 4.8 4.8 0.00 0.00 0.00 38 1010.0
20260906214411 37 12 4.8 8.0 0.00 0.00 0.00 39 1010.1
20260906213910 37 60 4.8 9.7 0.00 0.00 0.00 38 1010.0
20260906213410 37 78 3.2 4.8 0.00 0.00 0.00 40 1010.2
20260906212908 37 51 4.8 4.8 0.00 0.00 0.00 41 1010.2
20260906212404 38 138 4.8 4.8 0.00 0.00 0.00 40 1010.3
20260906211903 37 122 6.4 9.7 0.00 0.00 0.00 41 1010.6
20260906211358 38 134 4.8 8.0 0.00 0.00 0.00 40 1010.5
20260906210853 37 148 3.2 3.2 0.00 0.00 0.00 40 1010.5
20260906210349 37 84 3.2 4.8 0.00 0.00 0.00 41 1010.6
20260906205843 36 115 1.6 1.6 0.00 0.00 0.00 42 1010.6
20260906205340 37 134 4.8 9.7 0.00 0.00 0.00 42 1010.6
20260906204835 37 98 4.8 8.0 0.00 0.00 0.00 42 1010.9
20260906204334 36 128 4.8 4.8 0.00 0.00 0.00 42 1010.7
20260906203833 36 96 3.2 4.8 0.00 0.00 0.00 43 1010.8
20260906203329 36 80 8.0 11.3 0.00 0.00 0.00 43 1011.1
20260906202826 37 120 4.8 8.0 0.00 0.00 0.00 41 1010.8
20260906202326 37 91 4.8 8.0 0.00 0.00 0.00 43 1011.1
20260906201820 36 106 4.8 4.8 0.00 0.00 0.00 42 1011.1
20260906201320 36 94 1.6 3.2 0.00 0.00 0.00 44 1011.3
20260906200815 37 119 8.0 11.3 0.00 0.00 0.00 42 1011.0
20260906200312 37 68 6.4 8.0 0.00 0.00 0.00 42 1011.1
20260906195806 36 106 4.8 4.8 0.00 0.00 0.00 42 1011.2
20260906195306 36 155 3.2 3.2 0.00 0.00 0.00 44 1011.3
20260906194758 36 209 3.2 3.2 0.00 0.00 0.00 44 1011.3
20260906194255 37 137 6.4 11.3 0.00 0.00 0.00 42 1011.3
20260906193755 36 117 4.8 9.7 0.00 0.00 0.00 44 1011.5
20260906193249 37 102 9.7 12.9 0.00 0.00 0.00 43 1011.8
20260906192745 36 138 3.2 4.8 0.00 0.00 0.00 43 1011.6
20260906192240 36 59 3.2 3.2 0.00 0.00 0.00 44 1011.8
20260906191739 36 109 9.7 11.3 0.00 0.00 0.00 45 1011.5
20260906191234 35 126 4.8 4.8 0.00 0.00 0.00 46 1011.7
20260906190734 36 73 4.8 8.0 0.00 0.00 0.00 45 1011.9
20260906190228 36 119 1.6 3.2 0.00 0.00 0.00 45 1011.9
20260906185727 36 56 3.2 8.0 0.00 0.00 0.00 46 1012.0
20260906185226 36 177 4.8 8.0 0.00 0.00 0.00 45 1012.0
20260906184721 36 80 6.4 9.7 0.00 0.00 0.00 45 1012.1
20260906184216 36 191 3.2 4.8 0.00 0.00 0.00 46 1012.2
20260906183712 36 158 4.8 11.3 0.00 0.00 0.00 45 1012.1
20260906183208 36 187 6.4 9.7 0.00 0.00 0.00 45 1012.2
20260906182708 36 43 6.4 9.7 0.00 0.00 0.00 47 1012.1
20260906182204 36 112 8.0 9.7 0.00 0.00 0.00 44 1012.2
20260906181659 36 188 6.4 9.7 0.00 0.00 0.00 48 1012.1
20260906181156 36 60 1.6 4.8 0.00 0.00 0.00 47 1012.2
20260906180655 36 51 6.4 9.7 0.00 0.00 0.00 46 1012.6
20260906180151 36 181 4.8 8.0 0.00 0.00 0.00 46 1012.8
20260906175648 35 82 6.4 8.0 0.00 0.00 0.00 49 1012.9
20260906175144 35 124 6.4 9.7 0.00 0.00 0.00 49 1012.9
20260906174642 35 130 4.8 4.8 0.00 0.00 0.00 50 1012.8
20260906174137 35 191 4.8 4.8 0.00 0.00 0.00 49 1013.1
20260906173632 35 128 4.8 4.8 0.00 0.00 0.00 50 1013.0
20260906173128 33 93 0.0 1.6 0.00 0.00 0.00 52 1013.2
20260906172627 35 112 3.2 3.2 0.00 0.00 0.00 52 1013.2
20260906172123 35 135 6.4 9.7 0.00 0.00 0.00 50 1013.4
20260906171622 34 147 1.6 3.2 0.00 0.00 0.00 52 1013.5
20260906171118 33 157 6.4 9.7 0.00 0.00 0.00 53 1013.2
20260906170614 35 117 3.2 3.2 0.00 0.00 0.00 52 1013.6
20260906170113 35 154 1.6 3.2 0.00 0.00 0.00 53 1013.7
20260906165610 34 171 1.6 1.6 0.00 0.00 0.00 53 1013.6
20260906165105 35 152 3.2 3.2 0.00 0.00 0.00 54 1013.8
20260906164604 34 107 4.8 4.8 0.00 0.00 0.00 53 1013.6
20260906164100 33 21 1.6 1.6 0.00 0.00 0.00 56 1013.8
20260906163555 32 120 1.6 1.6 0.00 0.00 0.00 58 1013.7
20260906163051 33 149 4.8 8.0 0.00 0.00 0.00 56 1013.6
20260906162548 33 127 6.4 9.7 0.00 0.00 0.00 55 1013.6
20260906162043 33 56 4.8 4.8 0.00 0.00 0.00 56 1013.7
20260906161538 34 207 4.8 9.7 0.00 0.00 0.00 55 1013.4
20260906161036 33 42 1.6 1.6 0.00 0.00 0.00 57 1013.7
20260906160536 32 175 6.4 8.0 0.00 0.00 0.00 60 1013.7
20260906160034 32 134 1.6 1.6 0.00 0.00 0.00 60 1013.9
20260906155532 32 119 1.6 3.2 0.00 0.00 0.00 62 1013.9
20260906155028 32 101 4.8 4.8 0.00 0.00 0.00 61 1013.4
20260906154524 32 129 1.6 1.6 0.00 0.00 0.00 62 1013.8
20260906154022 32 157 3.2 3.2 0.00 0.00 0.00 62 1013.8
20260906153521 32 121 3.2 8.0 0.00 0.00 0.00 62 1013.7
20260906153017 32 106 3.2 3.2 0.00 0.00 0.00 63 1013.8
20260906152510 31 135 3.2 3.2 0.00 0.00 0.00 67 1013.8
20260906152010 30 150 1.6 1.6 0.00 0.00 0.00 68 1013.6
20260906151506 31 181 3.2 4.8 0.00 0.00 0.00 66 1013.5
20260906151001 31 147 4.8 8.0 0.00 0.00 0.00 67 1013.5
20260906150456 30 80 3.2 3.2 0.00 0.00 0.00 68 1013.4
20260906145955 31 50 1.6 3.2 0.00 0.00 0.00 67 1013.5
20260906145450 31 116 3.2 4.8 0.00 0.00 0.00 67 1013.4
20260906144949 30 131 1.6 1.6 0.00 0.00 0.00 69 1013.4
20260906144445 30 81 4.8 4.8 0.00 0.00 0.00 70 1013.3
20260906143940 30 114 3.2 3.2 0.00 0.00 0.00 70 1013.3
20260906143435 30 122 3.2 3.2 0.00 0.00 0.00 70 1013.5
20260906142931 30 129 3.2 3.2 0.00 0.00 0.00 72 1013.5
20260906142431 29 139 1.6 3.2 0.00 0.00 0.00 73 1013.4
20260906141926 29 89 1.6 1.6 0.00 0.00 0.00 73 1013.5
20260906141420 30 127 1.6 1.6 0.00 0.00 0.00 72 1013.3
20260906140920 29 159 1.6 1.6 0.00 0.00 0.00 73 1013.2
20260906140415 28 125 3.2 3.2 0.00 0.00 0.00 74 1013.1
20260906135913 28 105 3.2 3.2 0.00 0.00 0.00 74 1013.1
20260906135412 28 121 3.2 3.2 0.00 0.00 0.00 74 1013.2
20260906134908 28 118 3.2 3.2 0.00 0.00 0.00 74 1013.2
20260906134403 28 132 1.6 1.6 0.00 0.00 0.00 76 1013.1
20260906133857 28 133 1.6 3.2 0.00 0.00 0.00 76 1013.1
20260906133353 28 134 1.6 1.6 0.00 0.00 0.00 76 1013.1
20260906132849 27 116 1.6 1.6 0.00 0.00 0.00 78 1013.4
20260906132344 27 71 1.6 1.6 0.00 0.00 0.00 80 1013.2
20260906131840 26 145 0.0 1.6 0.00 0.00 0.00 81 1013.2
20260906131335 26 158 0.0 1.6 0.00 0.00 0.00 82 1013.2
20260906130831 26 131 1.6 1.6 0.00 0.00 0.00 82 1013.0
20260906130330 26 158 0.0 0.0 0.00 0.00 0.00 83 1013.0
20260906125829 26 156 1.6 1.6 0.00 0.00 0.00 83 1013.0
20260906125326 26 135 1.6 1.6 0.00 0.00 0.00 83 1013.0
20260906124821 26 140 1.6 3.2 0.00 0.00 0.00 84 1012.8
20260906124317 26 154 0.0 0.0 0.00 0.00 0.00 84 1012.9
20260906123816 25 154 0.0 0.0 0.00 0.00 0.00 84 1012.9
20260906123312 25 119 1.6 1.6 0.00 0.00 0.00 84 1012.8
20260906122811 25 150 0.0 0.0 0.00 0.00 0.00 85 1012.8
20260906122306 25 142 0.0 1.6 0.00 0.00 0.00 85 1013.2
20260906121803 25 150 0.0 0.0 0.00 0.00 0.00 85 1012.8
20260906121258 25 159 0.0 1.6 0.00 0.00 0.00 85 1012.8
20260906120755 25 151 0.0 0.0 0.00 0.00 0.00 85 1012.7
20260906120251 25 153 0.0 0.0 0.00 0.00 0.00 85 1012.6
20260906115747 25 150 0.0 0.0 0.00 0.00 0.00 85 1012.7
20260906115241 25 145 0.0 1.6 0.00 0.00 0.00 85 1012.8
20260906114740 25 154 0.0 0.0 0.00 0.00 0.00 85 1012.6
20260906114236 25 147 0.0 0.0 0.00 0.00 0.00 86 1012.5
20260906113731 25 145 0.0 0.0 0.00 0.00 0.00 86 1012.2
20260906113231 25 143 0.0 0.0 0.00 0.00 0.00 85 1012.4
20260906112730 25 158 0.0 0.0 0.00 0.00 0.00 85 1012.4
20260906112227 25 149 0.0 0.0 0.00 0.00 0.00 85 1012.5
20260906111726 25 147 0.0 0.0 0.00 0.00 0.00 85 1012.3
20260906111221 25 146 0.0 0.0 0.00 0.00 0.00 85 1012.4
20260906110716 25 148 0.0 0.0 0.00 0.00 0.00 85 1012.1
20260906110212 25 147 0.0 0.0 0.00 0.00 0.00 84 1012.2
20260906105711 25 144 0.0 0.0 0.00 0.00 0.00 84 1011.9
20260906105207 25 144 0.0 0.0 0.00 0.00 0.00 84 1012.1
20260906104707 25 143 0.0 0.0 0.00 0.00 0.00 84 1012.1
20260906104206 25 155 0.0 0.0 0.00 0.00 0.00 84 1012.3
20260906103704 25 157 0.0 0.0 0.00 0.00 0.00 83 1012.1
20260906103159 25 156 0.0 0.0 0.00 0.00 0.00 83 1012.2
20260906102655 26 152 0.0 0.0 0.00 0.00 0.00 83 1012.2
20260906102154 26 143 0.0 0.0 0.00 0.00 0.00 83 1012.1
20260906101653 26 139 0.0 0.0 0.00 0.00 0.00 82 1012.1
20260906101148 26 156 0.0 0.0 0.00 0.00 0.00 82 1012.1
20260906100644 26 157 0.0 0.0 0.00 0.00 0.00 82 1011.6
20260906100144 26 144 0.0 0.0 0.00 0.00 0.00 83 1011.9
20260906095639 26 147 0.0 0.0 0.00 0.00 0.00 83 1011.8
20260906095135 26 143 0.0 0.0 0.00 0.00 0.00 82 1011.7
20260906094634 26 143 0.0 0.0 0.00 0.00 0.00 82 1011.7
20260906094130 26 139 0.0 1.6 0.00 0.00 0.00 82 1011.5
20260906093626 26 144 0.0 0.0 0.00 0.00 0.00 82 1011.4
20260906093125 26 150 0.0 0.0 0.00 0.00 0.00 82 1011.4
20260906092620 26 150 0.0 0.0 0.00 0.00 0.00 81 1011.3
20260906092115 26 151 0.0 0.0 0.00 0.00 0.00 81 1011.3
20260906091611 26 156 0.0 1.6 0.00 0.00 0.00 80 1011.3
20260906091108 26 165 0.0 0.0 0.00 0.00 0.00 80 1011.5
20260906090608 26 157 0.0 0.0 0.00 0.00 0.00 80 1011.5
20260906090108 26 144 0.0 0.0 0.00 0.00 0.00 79 1011.5
20260906085607 26 148 0.0 0.0 0.00 0.00 0.00 79 1011.8
20260906085102 27 149 0.0 0.0 0.00 0.00 0.00 78 1011.5
20260906084557 27 147 0.0 1.6 0.00 0.00 0.00 78 1011.3
20260906084055 27 150 0.0 0.0 0.00 0.00 0.00 78 1011.3
20260906083551 27 145 1.6 3.2 0.00 0.00 0.00 78 1011.3
20260906083051 27 155 0.0 0.0 0.00 0.00 0.00 78 1011.2
20260906082546 27 158 0.0 1.6 0.00 0.00 0.00 77 1011.4
20260906082042 27 156 0.0 1.6 0.00 0.00 0.00 77 1011.6
20260906081538 27 149 1.6 3.2 0.00 0.00 0.00 77 1011.5
20260906081033 27 144 1.6 3.2 0.00 0.00 0.00 77 1011.6
20260906080530 27 157 0.0 1.6 0.00 0.00 0.00 77 1011.4
20260906080026 27 138 1.6 1.6 0.00 0.00 0.00 76 1011.5
20260906075525 27 147 3.2 3.2 0.00 0.00 0.00 76 1011.4
20260906075020 27 174 1.6 3.2 0.00 0.00 0.00 76 1011.7
20260906074515 27 159 1.6 1.6 0.00 0.00 0.00 76 1011.4
20260906074013 27 220 1.6 3.2 0.00 0.00 0.00 76 1011.6
20260906073508 27 166 6.4 9.7 0.00 0.00 0.00 76 1011.6
20260906073004 27 157 3.2 3.2 0.00 0.00 0.00 76 1011.5
20260906072459 27 154 1.6 1.6 0.00 0.00 0.00 76 1011.5
20260906071955 28 153 3.2 3.2 0.00 0.00 0.00 76 1011.4
20260906071451 28 160 1.6 1.6 0.00 0.00 0.00 76 1011.5
20260906070946 28 144 0.0 1.6 0.00 0.00 0.00 76 1011.7
20260906070442 28 156 0.0 0.0 0.00 0.00 0.00 76 1011.8
20260906065938 28 169 0.0 1.6 0.00 0.00 0.00 76 1011.7
20260906065437 28 169 1.6 3.2 0.00 0.00 0.00 77 1011.6
20260906064933 28 152 1.6 1.6 0.00 0.00 0.00 77 1011.9
20260906064429 28 156 3.2 3.2 0.00 0.00 0.00 76 1011.8
20260906063924 28 152 1.6 1.6 0.00 0.00 0.00 76 1011.9
20260906063419 28 131 3.2 3.2 0.00 0.00 0.00 75 1011.9
20260906062914 28 126 3.2 4.8 0.00 0.00 0.00 75 1011.9
20260906062414 28 153 0.0 1.6 0.00 0.00 0.00 75 1012.1
20260906061910 28 147 1.6 1.6 0.00 0.00 0.00 74 1012.0
20260906061406 28 174 1.6 1.6 0.00 0.00 0.00 74 1011.9
20260906060906 28 165 1.6 1.6 0.00 0.00 0.00 74 1011.9
20260906060403 28 170 3.2 4.8 0.00 0.00 0.00 74 1011.8
20260906055859 28 142 1.6 3.2 0.00 0.00 0.00 74 1012.0
20260906055355 28 165 0.0 1.6 0.00 0.00 0.00 74 1011.7
20260906054849 28 147 0.0 0.0 0.00 0.00 0.00 73 1012.1
20260906054344 28 150 0.0 0.0 0.00 0.00 0.00 73 1011.9
20260906053841 28 145 0.0 1.6 0.00 0.00 0.00 73 1011.8
20260906053337 29 146 0.0 0.0 0.00 0.00 0.00 73 1012.0
20260906052832 29 158 1.6 3.2 0.00 0.00 0.00 72 1012.0
20260906052328 29 159 1.6 1.6 0.00 0.00 0.00 72 1011.8
20260906051825 29 158 1.6 1.6 0.00 0.00 0.00 72 1011.7
20260906051324 29 165 3.2 3.2 0.00 0.00 0.00 72 1011.9
20260906050820 29 152 0.0 0.0 0.00 0.00 0.00 72 1011.9
20260906050315 29 165 1.6 1.6 0.00 0.00 0.00 72 1011.4
20260906045814 29 138 4.8 4.8 0.00 0.00 0.00 71 1011.8
20260906045308 29 154 1.6 1.6 0.00 0.00 0.00 71 1011.9
20260906044805 29 149 1.6 3.2 0.00 0.00 0.00 71 1011.9
20260906044259 30 144 0.0 1.6 0.00 0.00 0.00 70 1011.8
20260906043755 30 149 3.2 4.8 0.00 0.00 0.00 70 1011.8
20260906043251 30 146 1.6 3.2 0.00 0.00 0.00 69 1011.8
20260906042750 30 145 1.6 1.6 0.00 0.00 0.00 69 1011.6
20260906042250 30 156 1.6 3.2 0.00 0.00 0.00 68 1011.7
20260906041745 30 142 1.6 1.6 0.00 0.00 0.00 68 1011.8
20260906041241 30 155 0.0 0.0 0.00 0.00 0.00 67 1011.7
20260906040736 30 148 3.2 3.2 0.00 0.00 0.00 67 1011.6
20260906040231 30 147 1.6 1.6 0.00 0.00 0.00 67 1011.7
20260906035726 30 192 4.8 4.8 0.00 0.00 0.00 67 1011.7
20260906035222 30 139 1.6 1.6 0.00 0.00 0.00 66 1011.7
20260906034722 30 141 3.2 3.2 0.00 0.00 0.00 66 1011.7
20260906034217 30 158 1.6 1.6 0.00 0.00 0.00 65 1011.8
20260906033713 30 106 1.6 3.2 0.00 0.00 0.00 65 1011.6
20260906033212 30 136 6.4 8.0 0.00 0.00 0.00 65 1011.7
20260906032710 30 210 1.6 3.2 0.00 0.00 0.00 65 1011.7
20260906032209 30 146 4.8 4.8 0.00 0.00 0.00 64 1011.9
20260906031704 30 140 3.2 3.2 0.00 0.00 0.00 64 1011.9
20260906031159 30 109 4.8 4.8 0.00 0.00 0.00 63 1011.9
20260906030659 30 189 6.4 9.7 0.00 0.00 0.00 63 1012.0
20260906030155 31 126 3.2 3.2 0.00 0.00 0.00 63 1011.9
20260906025654 31 155 1.6 1.6 0.00 0.00 0.00 63 1011.6
20260906025154 31 125 3.2 4.8 0.00 0.00 0.00 62 1011.7
20260906024648 31 101 9.7 12.9 0.00 0.00 0.00 62 1011.6
20260906024147 31 162 9.7 12.9 0.00 0.00 0.00 62 1011.5
20260906023643 31 123 3.2 4.8 0.00 0.00 0.00 62 1011.4
20260906023143 31 123 0.0 1.6 0.00 0.00 0.00 62 1011.3
20260906022638 31 117 3.2 4.8 0.00 0.00 0.00 63 1011.4
20260906022134 31 117 1.6 1.6 0.00 0.00 0.00 62 1011.3
20260906021630 31 107 3.2 3.2 0.00 0.00 0.00 62 1011.3
20260906021128 31 134 1.6 1.6 0.00 0.00 0.00 62 1011.0
20260906020629 31 151 1.6 3.2 0.00 0.00 0.00 62 1011.1
20260906020124 31 114 11.3 16.1 0.00 0.00 0.00 61 1010.9
20260906015618 31 145 3.2 4.8 0.00 0.00 0.00 61 1011.1
20260906015116 31 158 1.6 1.6 0.00 0.00 0.00 60 1010.7
20260906014611 31 176 6.4 8.0 0.00 0.00 0.00 60 1010.8
20260906014108 31 147 6.4 9.7 0.00 0.00 0.00 59 1010.4
20260906013603 31 164 3.2 8.0 0.00 0.00 0.00 59 1010.4
20260906013059 31 105 3.2 4.8 0.00 0.00 0.00 59 1010.4
20260906012559 32 143 6.4 8.0 0.00 0.00 0.00 58 1010.4
20260906012059 32 168 4.8 9.7 0.00 0.00 0.00 58 1010.2
20260906011555 32 179 9.7 14.5 0.00 0.00 0.00 57 1010.4
20260906011055 32 210 6.4 8.0 0.00 0.00 0.00 57 1010.2
20260906010550 32 149 6.4 11.3 0.00 0.00 0.00 57 1010.3
20260906010046 32 123 12.9 16.1 0.00 0.00 0.00 56 1010.2
20260906005545 33 188 0.0 1.6 0.00 0.00 0.00 55 1010.2
20260906005044 33 179 11.3 17.7 0.00 0.00 0.00 54 1010.0
20260906004544 33 81 8.0 11.3 0.00 0.00 0.00 53 1010.2
20260906004039 34 147 8.0 11.3 0.00 0.00 0.00 51 1010.0
20260906003534 35 88 11.3 20.9 0.00 0.00 0.00 45 1009.8
20260906003030 35 157 3.2 3.2 0.00 0.00 0.00 43 1009.9
20260906002525 35 123 3.2 3.2 0.00 0.00 0.00 43 1009.9
20260906002020 35 112 6.4 8.0 0.00 0.00 0.00 43 1009.8
20260906001516 36 134 4.8 4.8 0.00 0.00 0.00 42 1009.9
20260906001015 36 111 8.0 11.3 0.00 0.00 0.00 41 1009.7
20260906000511 36 132 0.0 0.0 0.00 0.00 0.00 41 1009.9
20260906000006 36 148 0.0 0.0 0.00 0.00 0.00 41 1010.0
20260905235506 36 179 3.2 3.2 0.00 0.00 0.00 40 1009.6
20260905235001 36 173 3.2 4.8 0.00 0.00 0.00 40 1009.5